• In Latvia
  • List of Countries
  • For 7 days
  • Water Temperature
  • Satellite Maps
  • Weather Map
  • Weather Widgets
  • user-avatar
    Login

    Hourly Weather Mendoza

    Today, 24 June, Saturday

    Time Temperature Precipitation Wind Pressure Humidity
    00:00 +10°C° 0 mm 3 mps 696 mmHg 80%
    01:00 +9°C° 0 mm 3 mps 696 mmHg 79%
    02:00 +9°C° 0 mm 3 mps 695 mmHg 79%
    03:00 +9°C° 0 mm 3 mps 695 mmHg 79%
    04:00 +8°C° 0 mm 3 mps 695 mmHg 78%
    05:00 +8°C° 0 mm 3 mps 695 mmHg 78%
    06:00 +8°C° 0 mm 3 mps 695 mmHg 78%
    07:00 +8°C° 0 mm 3 mps 695 mmHg 78%
    08:00 +9°C° 0 mm 3 mps 695 mmHg 72%
    09:00 +11°C° 0 mm 3 mps 695 mmHg 66%
    10:00 +12°C° 0 mm 3 mps 695 mmHg 60%
    11:00 +13°C° 0 mm 3 mps 694 mmHg 56%
    12:00 +14°C° 0 mm 3 mps 694 mmHg 53%
    13:00 +16°C° 0 mm 3 mps 693 mmHg 49%
    14:00 +16°C° 0 mm 3 mps 693 mmHg 52%
    15:00 +14°C° 0 mm 3 mps 693 mmHg 54%
    16:00 +14°C° 0 mm 2 mps 692 mmHg 57%
    17:00 +13°C° 0 mm 2 mps 693 mmHg 60%
    18:00 +11°C° 0 mm 3 mps 693 mmHg 63%
    19:00 +10°C° 0 mm 3 mps 693 mmHg 67%
    20:00 +10°C° 0 mm 3 mps 693 mmHg 67%
    21:00 +10°C° 0 mm 3 mps 693 mmHg 68%
    22:00 +10°C° 0 mm 3 mps 693 mmHg 68%
    23:00 +10°C° 0 mm 3 mps 692 mmHg 69%

    Tomorrow, 25 June, Sunday

    Time Temperature Precipitation Wind Pressure Humidity
    00:00 +10°C° 0 mm 3 mps 692 mmHg 71%
    01:00 +10°C° 0 mm 3 mps 692 mmHg 72%
    02:00 +10°C° 0 mm 3 mps 692 mmHg 72%
    03:00 +10°C° 0 mm 3 mps 692 mmHg 72%
    04:00 +9°C° 0 mm 3 mps 691 mmHg 71%
    05:00 +9°C° 0 mm 3 mps 691 mmHg 71%
    06:00 +9°C° 0 mm 3 mps 692 mmHg 71%
    07:00 +9°C° 0 mm 3 mps 692 mmHg 71%
    08:00 +11°C° 0 mm 3 mps 692 mmHg 67%
    09:00 +13°C° 0 mm 3 mps 692 mmHg 62%
    10:00 +16°C° 0 mm 3 mps 693 mmHg 57%
    11:00 +17°C° 0 mm 4 mps 692 mmHg 52%
    12:00 +18°C° 0 mm 4 mps 692 mmHg 48%
    13:00 +19°C° 0 mm 4 mps 692 mmHg 43%
    14:00 +18°C° 0 mm 4 mps 692 mmHg 45%
    15:00 +18°C° 0 mm 3 mps 692 mmHg 47%
    16:00 +17°C° 0 mm 3 mps 691 mmHg 49%
    17:00 +16°C° 0 mm 3 mps 692 mmHg 52%
    18:00 +14°C° 0 mm 3 mps 692 mmHg 55%
    19:00 +13°C° 0 mm 4 mps 693 mmHg 58%
    20:00 +13°C° 0 mm 4 mps 693 mmHg 58%
    21:00 +12°C° 0 mm 4 mps 693 mmHg 58%
    22:00 +12°C° 0 mm 4 mps 693 mmHg 58%
    23:00 +12°C° 0 mm 4 mps 693 mmHg 63%

    Day after tomorrow, 26 June, Monday

    Time Temperature Precipitation Wind Pressure Humidity
    00:00 +12°C° 0 mm 4 mps 693 mmHg 67%
    01:00 +11°C° 0 mm 4 mps 693 mmHg 72%
    02:00 +11°C° 0 mm 4 mps 693 mmHg 72%
    03:00 +11°C° 0 mm 4 mps 692 mmHg 73%
    04:00 +11°C° 0 mm 4 mps 692 mmHg 73%
    05:00 +11°C° 0 mm 4 mps 692 mmHg 73%
    06:00 +11°C° 0 mm 4 mps 693 mmHg 72%
    07:00 +11°C° 0 mm 4 mps 693 mmHg 72%
    08:00 +12°C° 0 mm 4 mps 693 mmHg 68%
    09:00 +13°C° 0 mm 4 mps 694 mmHg 64%
    10:00 +14°C° 0 mm 4 mps 694 mmHg 60%
    11:00 +15°C° 0 mm 4 mps 694 mmHg 60%
    12:00 +15°C° 0 mm 5 mps 694 mmHg 61%
    13:00 +16°C° 0 mm 5 mps 693 mmHg 61%
    14:00 +15°C° 0 mm 4 mps 693 mmHg 62%
    15:00 +15°C° 0 mm 4 mps 693 mmHg 62%
    16:00 +14°C° 0 mm 4 mps 694 mmHg 63%
    17:00 +14°C° 0 mm 3 mps 694 mmHg 68%
    18:00 +13°C° 0 mm 3 mps 694 mmHg 72%
    19:00 +13°C° 0 mm 2 mps 695 mmHg 77%
    20:00 +13°C° 0.1 mm 2 mps 695 mmHg 79%
    21:00 +12°C° 0.1 mm 2 mps 696 mmHg 80%
    22:00 +12°C° 0.1 mm 2 mps 696 mmHg 82%
    23:00 +12°C° 0 mm 2 mps 696 mmHg 82%

    27 June, Tuesday

    Time Temperature Precipitation Wind Pressure Humidity
    00:00 +10°C° 0 mm 2 mps 696 mmHg 83%
    01:00 +10°C° 0 mm 2 mps 696 mmHg 83%
    02:00 +10°C° 0 mm 2 mps 696 mmHg 83%
    03:00 +9°C° 0 mm 2 mps 696 mmHg 83%
    04:00 +10°C° 0 mm 1 mps 697 mmHg 83%
    05:00 +10°C° 0 mm 1 mps 697 mmHg 86%
    06:00 +9°C° 0 mm 1 mps 698 mmHg 89%
    07:00 +9°C° 0 mm 1 mps 699 mmHg 91%
    08:00 +9°C° 0 mm 2 mps 699 mmHg 83%
    09:00 +10°C° 0 mm 2 mps 700 mmHg 74%
    10:00 +12°C° 0 mm 3 mps 700 mmHg 66%
    11:00 +12°C° 0 mm 3 mps 699 mmHg 64%
    12:00 +13°C° 0 mm 3 mps 699 mmHg 61%
    13:00 +13°C° 0 mm 3 mps 699 mmHg 59%
    14:00 +13°C° 0 mm 3 mps 699 mmHg 62%
    15:00 +13°C° 0 mm 2 mps 699 mmHg 65%
    16:00 +13°C° 0 mm 2 mps 699 mmHg 69%
    17:00 +12°C° 0 mm 2 mps 699 mmHg 74%
    18:00 +11°C° 0 mm 1 mps 700 mmHg 78%
    19:00 +10°C° 0 mm 1 mps 700 mmHg 83%
    20:00 +9°C° 0 mm 1 mps 700 mmHg 84%
    21:00 +8°C° 0 mm 2 mps 700 mmHg 84%
    22:00 +8°C° 0 mm 2 mps 700 mmHg 84%
    23:00 +7°C° 0 mm 2 mps 700 mmHg 85%

    28 June, Wednesday

    Time Temperature Precipitation Wind Pressure Humidity
    00:00 +7°C° 0 mm 2 mps 700 mmHg 85%
    01:00 +7°C° 0 mm 2 mps 700 mmHg 86%
    02:00 +6°C° 0 mm 2 mps 700 mmHg 86%
    03:00 +7°C° 0 mm 1 mps 699 mmHg 86%
    04:00 +7°C° 0 mm 1 mps 699 mmHg 86%
    05:00 +7°C° 0 mm 1 mps 699 mmHg 85%
    06:00 +7°C° 0 mm 1 mps 699 mmHg 85%
    07:00 +6°C° 0 mm 1 mps 700 mmHg 84%
    08:00 +9°C° 0 mm 1 mps 700 mmHg 74%
    09:00 +10°C° 0 mm 2 mps 700 mmHg 63%
    10:00 +13°C° 0 mm 2 mps 700 mmHg 53%
    11:00 +14°C° 0 mm 2 mps 700 mmHg 49%
    12:00 +14°C° 0 mm 3 mps 700 mmHg 45%
    13:00 +16°C° 0 mm 3 mps 699 mmHg 41%
    14:00 +14°C° 0 mm 3 mps 699 mmHg 44%
    15:00 +15°C° 0 mm 2 mps 699 mmHg 46%
    16:00 +14°C° 0 mm 2 mps 700 mmHg 48%
    17:00 +13°C° 0 mm 2 mps 700 mmHg 51%
    18:00 +12°C° 0 mm 2 mps 700 mmHg 55%
    19:00 +10°C° 0 mm 2 mps 700 mmHg 58%
    20:00 +9°C° 0 mm 2 mps 700 mmHg 57%
    21:00 +9°C° 0 mm 2 mps 701 mmHg 56%
    22:00 +9°C° 0 mm 2 mps 701 mmHg 54%
    23:00 +9°C° 0 mm 2 mps 700 mmHg 53%

    29 June, Thursday

    Time Temperature Precipitation Wind Pressure Humidity
    00:00 +8°C° 0 mm 2 mps 700 mmHg 52%
    01:00 +8°C° 0 mm 2 mps 700 mmHg 51%
    02:00 +8°C° 0 mm 2 mps 700 mmHg 51%
    03:00 +7°C° 0 mm 2 mps 700 mmHg 51%
    04:00 +7°C° 0 mm 2 mps 700 mmHg 51%
    05:00 +7°C° 0 mm 2 mps 700 mmHg 51%
    06:00 +7°C° 0 mm 2 mps 700 mmHg 50%
    07:00 +7°C° 0 mm 2 mps 700 mmHg 50%
    08:00 +9°C° 0 mm 2 mps 701 mmHg 44%
    09:00 +13°C° 0 mm 2 mps 701 mmHg 38%
    10:00 +16°C° 0 mm 2 mps 702 mmHg 32%
    11:00 +17°C° 0 mm 3 mps 701 mmHg 30%
    12:00 +18°C° 0 mm 3 mps 701 mmHg 28%
    13:00 +19°C° 0 mm 3 mps 700 mmHg 26%
    14:00 +18°C° 0 mm 3 mps 700 mmHg 30%
    15:00 +17°C° 0 mm 3 mps 700 mmHg 33%
    16:00 +17°C° 0 mm 2 mps 700 mmHg 36%
    17:00 +15°C° 0 mm 2 mps 700 mmHg 40%
    18:00 +14°C° 0 mm 2 mps 700 mmHg 44%
    19:00 +12°C° 0 mm 1 mps 700 mmHg 48%
    20:00 +12°C° 0 mm 1 mps 700 mmHg 48%
    21:00 +10°C° 0 mm 2 mps 700 mmHg 49%
    22:00 +10°C° 0 mm 2 mps 700 mmHg 50%
    23:00 +10°C° 0 mm 2 mps 699 mmHg 52%
    Show more